Regional Weather Roundup
Issued by NWS Wakefield, VA

Home | Current Version | Previous Version | Graphics & Text | Print | Product List | Glossary On
Versions: 1 2 3 4 5 6 7 8 9 10 11 12 13 14 15 16 17 18 19 20 21 22 23 24 25 26 27 28 29 30 31 32 33 34 35 36 37 38 39 40 41 42 43 44 45 46 47 48 49 50
000
ASUS41 KAKQ 051515
RWRAKQ

REGIONAL WEATHER ROUNDUP
NATIONAL WEATHER SERVICE WAKEFIELD VA
1100 AM EDT SUN JUL 05 2015

Note: "fair" indicates few or no clouds below 12,000 feet with no
significant weather and/or obstructions to visibility. * = Denotes
station may not report precipitation (e.g., rain,snow,etc.),
thunder or fog.

VAZ042-051-052>054-056-051600-
NORTHERN VIRGINIA

CITY           SKY/WX    TMP DP  RH WIND       PRES   REMARKS
WASH NATIONAL  PTSUNNY   79  68  69 NE5       30.16R
DULLES         CLOUDY    72  66  81 CALM      30.16S
FORT BELVOIR   PTSUNNY   76  67  73 CALM      30.16R
QUANTICO       PTSUNNY   76  67  73 CALM      30.16S
FREDERICKSBRG* CLOUDY    77  72  85 NE3       30.15S
STAFFORD*      CLOUDY    74  68  82 CALM      30.20S HAZE
WARRENTON      CLOUDY    72  70  92 CALM      30.16S FOG
CULPEPER*      CLOUDY    70  69  96 NE3       30.17S
MANASSAS*      NOT AVBL
LEESBURG*      PTSUNNY   72  70  94 E5        30.18S
WINCHESTER     CLOUDY    73  68  83 E3        30.17S
FRONT ROYAL*   CLOUDY    70  68  94 CALM      30.16S
LURAY*         CLOUDY    73  72  94 CALM      30.17S
$$

VAZ048-049-060>072-079>083-051600-
CENTRAL AND SOUTH CENTRAL VIRGINIA

CITY           SKY/WX    TMP DP  RH WIND       PRES   REMARKS
RICHMOND       CLOUDY    78  71  79 E6        30.15S
CHESTERFIELD*  NOT AVBL
PETERSBURG*    CLOUDY    80  76  87 NE6       30.15S
HANOVER        CLOUDY    77  71  82 E6        30.17R
TAPPAHANNOCK*  PTSUNNY   77  70  79 CALM      30.16S
QUINTON*       NOT AVBL
CHARLOTTSVILLE CLOUDY    73  68  84 E5        30.17R
GORDONSVILLE*  CLOUDY    70  70 100 E3        30.16R FOG
ORANGE*        CLOUDY    72  70  94 CALM      30.18S FOG
LOUISA*        CLOUDY    75  70  83 E5        30.16R HAZE
BUMPASS*       CLOUDY    73  69  87 E5        30.16R
FARMVILLE*     CLOUDY    77  74  91 NE5       30.14S
CREWE*         CLOUDY    76  71  85 E5        30.15S
FORT PICKETT*  CLOUDY    79  73  81 E6        30.14F
CHASE CITY*    PTSUNNY   82  75  79 CALM      30.14R
CLARKSVILLE*   PTSUNNY   79  72  78 NE3       30.13S
SOUTH HILL*    MOSUNNY   79  72  78 N3        30.19R
LAWRENCEVILLE* NOT AVBL
EMPORIA*         N/A     81  72  74 CALM      30.14S
$$

VAZ088>098-051600-
SOUTHEAST VIRGINIA

CITY           SKY/WX    TMP DP  RH WIND       PRES   REMARKS
NORFOLK        SUNNY     80  70  71 NE7       30.14R
VIRGINIA BEACH PTSUNNY   83  72  69 E8        30.13R
NORFOLK NAVAL  PTSUNNY   81  71  71 NE7       30.15R
WEST POINT*    PTSUNNY   82  73  72 NE3       30.16S
SALUDA*        PTSUNNY   78  71  81 NE6       30.15R
NEWPORT NEWS   MOSUNNY   81  71  71 E8        30.14R
LANGLEY AFB    MOSUNNY   81  72  74 NE8       30.12R
FORT EUSTIS    SUNNY     82  78  87 SE3       30.12R
WILLIAMSBURG*  MOSUNNY   84  75  74 SE6       30.15R
HR EXEC AP*    PTSUNNY   82  72  69 CALM      30.15R
FRANKLIN*      MOSUNNY   82  72  71 CALM      30.13S
WAKEFIELD      PTSUNNY   82  73  74 VRB5      30.14R
$$

VAZ020-022-025-037-045-051600-
WEST CENTRAL AND SOUTHWEST VIRGINIA

CITY           SKY/WX    TMP DP  RH WIND       PRES   REMARKS
STAUNTON*      CLOUDY    76  69  80 CALM      30.19F HAZE
WAYNESBORO*    CLOUDY    72  68  88 NW3       30.18S
HOT SPRINGS VA CLOUDY    66  66 100 E5        30.26R FOG
LYNCHBURG      CLOUDY    72  69  90 NE7       30.17R
DANVILLE       CLOUDY    77  70  79 NE5       30.14R
SOUTH BOSTON*  FAIR      77  71  81 MISG      30.14R
MARTINSVILLE   CLOUDY    76  76  99 NE5       30.17S
ROANOKE        CLOUDY    73  67  81 CALM      30.18R
BLACKSBURG     CLOUDY    73  69  88 E6        30.22S
DUBLIN*        CLOUDY    73  71  91 E3        30.20S
MARION*        CLOUDY    71  67  87 E6        30.21F
HILLSVILLE*    CLOUDY    72  68  86 SE3       30.19F
RICHLANDS*     FAIR      71  69  91 E3        30.17F
WISE*          CLOUDY    72  68  88 CALM      30.16F
ABINGDON*      PTSUNNY   76  68  76 E8        30.13F
$$

MDZ021>025-VAZ099-100-051600-
SOUTHERN MARYLAND AND THE DELMARVA PENINSULA

CITY           SKY/WX    TMP DP  RH WIND       PRES   REMARKS
PATUXENT RIVER CLOUDY    75  68  78 E5        30.15S
BAY BRIDGE APT   N/A     73  66  78 NW5       30.16R
LEONARDTOWN    CLOUDY    73  68  83 E3        30.17R
DOVER          MOSUNNY   76  69  77 E6        30.14R
GEORGETOWN     PTSUNNY   77  68  73 E5        30.16R
EASTON         MOSUNNY   77  68  73 E3        30.19R
CAMBRIDGE      CLOUDY    77  68  73 CALM      30.15R
SALISBURY      CLOUDY    76  68  76 E3        30.15R
OCEAN CITY     CLOUDY    76  69  79 E6        30.16R
WALLOPS ISLAND CLOUDY    77  71  82 E6        30.16R
ACCOMACK*      PTSUNNY   77  72  83 E3        30.15R
$$

NCZ012>017-030>032-051600-
NORTH CENTRAL AND EASTERN NORTH CAROLINA

CITY           SKY/WX    TMP DP  RH WIND       PRES   REMARKS
ROANOKE RAPIDS FAIR      81  72  74 W3        30.12S
RALEIGH        PTSUNNY   83  72  69 SW7       30.13S
ELIZABETH CITY MOSUNNY   83  74  74 NE3       30.13R
AHOSKIE*       SUNNY    N/A N/A N/A CALM      30.12S
EDENTON*         N/A     81  74  79 S5        30.13S
CURRITUCK*     CLOUDY    83  72  69 E6        30.14R
KILL DEVIL HLS MOSUNNY   82  74  76 W6        30.13R
MANTEO         MOSUNNY   80  73  80 W5        30.14S
CAPE HATTERAS  PTSUNNY   82  72  71 SW10G18   30.15S
TARBORO*         N/A     86  72  63 CALM      30.13R
GOLDSBORO      PTSUNNY   84  73  68 SW5       30.11S
WASHINGTON     MOSUNNY   82  73  72 S6        30.14S
GREENVILLE     MOSUNNY   82  73  74 SW5       30.14S
NEW BERN       PTSUNNY   85  72  65 S8        30.15F
WILMINGTON     MOSUNNY   84  69  60 S8        30.15S
$$

VAZ048-051600-
ELSEWHERE

CITY           SKY/WX    TMP DP  RH WIND       PRES   REMARKS
HARRISBURG PA  PTSUNNY   73  65  75 W3        30.16R
BALTIMORE      PTSUNNY   76  66  71 CALM      30.15R
ANNAPOLIS      PTSUNNY   77  67  71 CALM      30.15R
ANDREWS AFB    PTSUNNY   75  73  94 NE6       30.15R
PHILADELPHIA   PTSUNNY   77  61  57 S5        30.15S
HENDERSON NC   CLOUDY    79  69  71 CALM      30.14R
GREENSBORO     CLOUDY    79  70  74 VRB3      30.13R
ROCKY MOUNT    MOSUNNY   86  74  67 S5        30.12S
$$

VAZ100-051600-
MARINE

STATION/POSITION TIME  TEMP    WIND        PRES    WAVE   SWELL
                       AIR SEA DIR/SP/G            HT/PER HT/PER
                 (UTC) (F)     (DEG/KT/KT) (MB)    (FT/S) (FT/S)
BRANDYWINE LGT   1400   72 74  150/  3/  4 1021.0R
CAPE MAY NJ      1400   74 76  100/  4/  5 1020.5R
LEWES DE         1400   73 73   50/  5/  5 1020.6R
15NM E FENWICK I 1450   73 73              1020.8R   4/ 6
OCEAN-CITY-INLET 1400   74 74  100/  4/  6 1020.4R
WACHAPREAGUE VA  1400   75 78   60/  5/  7 1020.6R
GOOSES REEF MD   1500   75 78  100/  2/  4 1022.2R
COVE POINT MD    1400   73     120/  3/  5 1021.3R
SOLOMONS ISLAND  1400      79                N/A
BISHOPS HEAD MD  1400   75      50/  5/  6 1020.5R
PINEY POINT MD   1400          120/  4/  5   N/A
CAMBRIDGE MD     1400   74 79   30/  2/  2 1020.4R
LEWISETTA VA     1400   75 79   90/  6/  8 1020.5R
RAPPAHANNOCK LGT 1400           30/  5/  6 1021.0R
STINGRAY PT      1500   77 80   70/  8/ 10 1021.0R   1/ 2
YORK RVR RNG VA  1400   79      90/  3/  4 1019.7R
YORKTOWN VA      1400   77 79   80/  4/  5 1020.0S
JAMESTOWN VA     1500   79 82  130/  6/ 10   N/A
DOMINION TERM VA 1400   78      80/  7/  9 1020.1R
KIPTOPEKE VA     1400      82  110/  5/  9   N/A
CHES BAY BRIDGE  1400   76 76   40/  6/  7 1019.8R
CAPE HENRY VA    1400   76      40/  7/  8   N/A
CHESAPEAKE LGHT  1400   75      30/  8/  9 1020.9R
WILLOUBY STN VA  1400   77      60/  6/  7 1021.1R
CAPE HENRY BUOY  1428      78                N/A     2/ 6
1ST LANDING BUOY 1500      79              1020.3R   1/ 6
CAPE CHARLES BUO 1426      77                N/A     2/ 7   2/ 7
OFFSHORE WE BUOY 1411      77                N/A     3/ 7   3/ 7
64NM E OF VA BCH 1450   76 77   50/  8/  8 1020.3R   4/ 7   3/ 7
DUCK PIER NC     1400   79 75  260/  6/  7   N/A
44100 DUCK FRF   1424      78                N/A     2/ 7
44056 DUCK FRF   1411      78                N/A     2/14
OREGON INLET NC  1400   79 79  230/  9/ 10 1020.2S
HATTERAS NC      1400   81 79  220/  8/ 13 1020.4F
DIAMOND SHLS NC  1450   80 81  240/ 16/ 17 1020.7R   4/ 6   2/ 9
CAPE LOOKOUT NC  1500   81     220/  8/ 11 1020.8S
$$


USA.gov is the U.S. government's official web portal to all federal, state and local government web resources and services.